Regional Weather Roundup
Issued by NWS

Home | Current Version | Previous Version | Graphics & Text | Print | Product List | Glossary Off
Versions: 1 2 3 4 5 6 7 8 9 10 11 12 13 14 15 16 17 18 19 20 21 22 23 24 25 26 27 28 29 30 31 32 33 34 35 36 37 38 39 40 41 42 43 44 45 46 47 48 49 50

000
ASUS43 KDMX 271307
RWRIA

WEATHER ROUNDUP FOR IOWA
NATIONAL WEATHER SERVICE DES MOINES IA
800 AM CDT WED AUG 27 2014

NOTE: "FAIR" INDICATES FEW OR NO CLOUDS BELOW 12,000 FEET WITH NO
SIGNIFICANT WEATHER AND/OR OBSTRUCTIONS TO VISIBILITY.

* - THESE STATIONS ARE NOT NWS STATIONS...THUS NOT UNDER NWS
QUALITY CONTROL.  THEY ALSO DO NOT REPORT WEATHER SUCH
AS PRECIPITATION OR FOG.

IAZ001>003-012>014-020>022-031>034-043>046-271400-
   NORTHWEST IOWA

CITY           SKY/WX    TMP DP  RH WIND       PRES   REMARKS
CARROLL *      PTSUNNY   66  63  88 CALM      30.15S
CHEROKEE *     CLOUDY    61  59  94 CALM      30.16S
DENISON *      PTSUNNY   66  64  94 E7        30.13F
LE MARS *      CLOUDY    63  59  88 NE5       30.15S
ORANGE CITY *  CLOUDY    63  55  77 E6        30.17R
SHELDON *      CLOUDY    59  57  94 E6        30.17R
SIOUX CITY     CLOUDY    65  60  84 E7        30.13S
SPENCER        PTSUNNY   60  57  89 E6        30.19R
STORM LAKE *   SUNNY     61  61 100 E8        30.17S
$$

IAZ055>058-069>071-079>083-090>094-271400-
   SOUTHWEST IOWA

CITY           SKY/WX    TMP DP  RH WIND       PRES   REMARKS
ATLANTIC *     CLOUDY    68  66  94 NE3       30.12S
AUDUBON *      SUNNY     68  66  94 NE5       30.15S
CLARINDA *     CLOUDY    70  68  94 NE5       30.15R
COUNCIL BLFS * CLOUDY    68  68 100 SE9       30.11R
CRESTON *      DRIZZLE   66  66 100 NE8       30.17R
HARLAN  *      CLOUDY    66  66 100 NE5       30.16S
LAMONI         TSTM      68  67  96 VRB5      30.15S FOG
RED OAK *      PTSUNNY   68  66  94 E8G14     30.13R
SHENANDOAH *   CLOUDY    70  68  94 NE9       30.12R
$$

IAZ047>049-059>061-072>074-084-271400-
   CENTRAL IOWA

CITY           SKY/WX    TMP DP  RH WIND       PRES   REMARKS
AMES           PTSUNNY   64  62  93 E3        30.15F
ANKENY *       MOSUNNY   66  64  94 CALM      30.14F
CHARITON *     LGT RAIN  66  64  94 CALM      30.16R
DES MOINES     LGT RAIN  69  61  75 E8        30.14S
GRINNELL*      CLOUDY    64  63  94 NE6       30.17R
KNOXVILLE *    MOSUNNY   66  63  88 NE5       30.15S
MARSHALLTOWN   MOSUNNY   64  61  90 E8        30.16S
PELLA *        CLOUDY    66  63  88 E3        30.16S
PERRY *        PTSUNNY   66  64  94 E5        30.15R
$$

IAZ004>006-015-016-023>025-035-036-271400-
   NORTH CENTRAL IOWA

CITY           SKY/WX    TMP DP  RH WIND       PRES   REMARKS
ALGONA *       MOSUNNY   61  57  88 SE7       30.19R
CLARION *      PTSUNNY   63  59  88 E6        30.17F
ESTHERVILLE    PTSUNNY   58  56  93 E3        30.19R
FORT DODGE *   PTSUNNY   63  59  88 E8        30.18R
MASON CITY     CLOUDY    61  58  90 E3        30.21R
FOREST CITY *  CLOUDY    61  59  94 SE3       30.19R
IOWA FALLS *     N/A     64  59  82 E5        30.19R
$$

IAZ007>011-017>019-026>030-037>042-050>054-066-271400-
   NORTHEAST IOWA

CITY           SKY/WX    TMP DP  RH WIND       PRES   REMARKS
CEDAR RAPIDS   MOSUNNY   66  61  84 E8        30.16R
CHARLES CITY * SUNNY     61  57  88 E5        30.20R
CLINTON *      PTSUNNY   66  61  82 NE6       30.18R
DECORAH *      MOSUNNY   63  59  88 CALM      30.19R
DUBUQUE        SUNNY     64  59  83 E5        30.18R
MONTICELLO *   SUNNY     66  61  82 CALM      30.17S
OELWEIN *      CLOUDY    64  59  82 E7        30.18F
WATERLOO       SUNNY     63  59  87 E6        30.16F
$$

IAZ064-065-067-068-078-271400-
   EAST CENTRAL IOWA

CITY           SKY/WX    TMP DP  RH WIND       PRES   REMARKS
DAVENPORT      PTSUNNY   67  62  84 E8        30.16R
IOWA CITY      PTSUNNY   68  62  81 NE6       30.16R
MT. PLEASANT * PTSUNNY   70  66  88 NE7       30.14R
MUSCATINE *    SUNNY     70  64  83 NE7       30.15R
QUAD CITIES    MOSUNNY   71  61  70 NE8       30.14R
$$

IAZ062-063-075>077-085>089-095>099-271400-
   SOUTHEAST IOWA

CITY           SKY/WX    TMP DP  RH WIND       PRES   REMARKS
BURLINGTON     MOSUNNY   71  66  84 NE7       30.13R
FAIRFIELD *    SUNNY     68  64  88 NE8       30.14R
FORT MADISON * MOSUNNY   72  70  94 E5        30.13R
KEOKUK *       MOSUNNY   72  68  88 E6G13     30.12R
OSKALOOSA *      N/A     66  64  94 NE5       30.15S
CENTERVILLE *  MOSUNNY   66  66 100 CALM      30.17R
OTTUMWA        CLOUDY    67  64  90 NE7       30.13S
WASHINGTON *   SUNNY     68  66  94 NE7       30.14S
$$

ABBREVIATIONS USED IN REMARKS
   TC - TEMPERATURES IN CELSIUS
  WCI - WIND CHILL INDEX
   HX - HEAT INDEX
  VSB - VISIBILITY
$$



USA.gov is the U.S. government's official web portal to all federal, state and local government web resources and services.